Savanna, IA

3:12 AM CDT on July 24, 2017 (GMT -0500)
Tri-Township

Weather History for KSFY - February, 2013

Change the Weather History Date:

Sunday, February 24, 2013

  Actual Average (KCWI) Record (KCWI)
Temperature  
Mean Temperature 19 °F -  
Max Temperature 35 °F 37 °F 71 °F (2011)
Min Temperature 3 °F 21 °F -11 °F (1993)
Degree Days  
Heating Degree Days 46    
Moisture  
Dew Point 14 °F    
Average Humidity 80    
Maximum Humidity 95    
Minimum Humidity 54    
Precipitation  
Precipitation 0.00 in - - ()
Sea Level Pressure  
Sea Level Pressure 30.08 in    
Wind  
Wind Speed 1 mph (East)    
Max Wind Speed 7 mph    
Max Gust Speed -    
Visibility 8 miles    
Events Fog    
Averages and records for this station are not official NWS values.
T = Trace of Precipitation, MM = Missing Value Source: NWS Daily Summary

Daily Weather History Graph

Daily Weather History Graph

Search for Another Location

Airport or City:

Trip Planner

Search our weather history database for the weather conditions in past years. The results will help you decide how hot, cold, wet, or windy it might be!

Date:

Astronomy

Feb. 24, 2013 Rise Set
Actual Time 6:42 AM CST 5:44 PM CST
Civil Twilight 6:14 AM CST 6:13 PM CST
Nautical Twilight 5:42 AM CST 6:45 PM CST
Astronomical Twilight 5:10 AM CST 7:17 PM CST
Moon 4:56 PM CST 5:40 AM CST
Length of Visible Light 11h 58m
Length of Day
11h 01m
Waxing Gibbous, 99% of the Moon is Illuminated
Feb 24
Waxing Gibbous
Feb 25
Full
Mar 4
Last Quarter
Mar 11
New
Mar 19
First Quarter

Hourly Weather History & Observations

Time (CST) Temp. Windchill Dew Point Humidity Pressure Visibility Wind Dir Wind Speed Gust Speed Precip Events Conditions
12:15 AM 12.2 °F - 10.2 °F 92% 29.99 in 0.8 mi Calm Calm - N/A   Mist
12:35 AM 11.3 °F - 9.0 °F 90% 29.99 in 1.5 mi Calm Calm - N/A   Mist
12:55 AM 9.0 °F - 6.6 °F 90% 29.99 in 1.8 mi Calm Calm - N/A   Mist
1:15 AM 5.5 °F - 2.5 °F 87% 30.00 in 5.0 mi Calm Calm - N/A   Clear
1:35 AM 7.9 °F -0.7 °F 5.2 °F 89% 30.00 in 4.0 mi SSE 4.6 mph - N/A   Clear
1:55 AM 6.1 °F - 3.2 °F 88% 30.00 in 0.5 mi Calm Calm - N/A Fog Light Freezing Fog
2:15 AM 8.4 °F - 6.1 °F 90% 30.01 in 5.0 mi Calm Calm - N/A   Clear
2:35 AM 7.9 °F - 5.0 °F 88% 30.01 in 0.5 mi Calm Calm - N/A Fog Light Freezing Fog
2:55 AM 5.4 °F - 2.5 °F 88% 30.00 in 2.0 mi Calm Calm - N/A   Clear
3:15 AM 5.0 °F - 2.1 °F 88% 30.01 in 5.0 mi Calm Calm - N/A   Clear
3:35 AM 5.4 °F - 2.5 °F 88% 30.00 in 4.0 mi Calm Calm - N/A   Clear
3:55 AM 6.4 °F - 3.6 °F 88% 30.00 in 5.0 mi Calm Calm - N/A   Clear
4:15 AM 7.7 °F - 5.0 °F 89% 30.01 in 7.0 mi Calm Calm - N/A   Clear
4:35 AM 7.0 °F - 4.3 °F 89% 30.02 in 7.0 mi Calm Calm - N/A   Clear
4:55 AM 6.8 °F - 4.1 °F 89% 30.04 in 7.0 mi Calm Calm - N/A   Clear
5:15 AM 4.5 °F - 1.4 °F 87% 30.04 in 7.0 mi Calm Calm - N/A   Clear
5:35 AM 3.2 °F - -0.2 °F 86% 30.05 in 7.0 mi Calm Calm - N/A   Clear
5:55 AM 3.9 °F - 1.0 °F 88% 30.05 in 7.0 mi Calm Calm - N/A   Clear
6:15 AM 4.1 °F - 1.2 °F 88% 30.05 in 7.0 mi Calm Calm - N/A   Clear
6:35 AM 5.4 °F - 2.5 °F 88% 30.05 in 7.0 mi Calm Calm - N/A   Clear
6:55 AM 5.5 °F - 2.5 °F 87% 30.07 in 7.0 mi Calm Calm - N/A   Clear
7:15 AM 4.8 °F - 1.9 °F 88% 30.08 in 7.0 mi Calm Calm - N/A   Clear
7:35 AM 5.0 °F - 2.1 °F 88% 30.09 in 7.0 mi Calm Calm - N/A   Clear
7:55 AM 6.8 °F - 3.9 °F 88% 30.10 in 4.0 mi Calm Calm - N/A   Clear
8:15 AM 7.7 °F - 5.2 °F 89% 30.10 in 2.0 mi Calm Calm - N/A   Clear
8:35 AM 10.9 °F - 8.6 °F 90% 30.10 in 4.0 mi Calm Calm - N/A   Clear
8:55 AM 13.5 °F - 11.5 °F 92% 30.11 in 5.0 mi Calm Calm - N/A   Clear
9:15 AM 14.9 °F - 13.3 °F 93% 30.11 in 5.0 mi Calm Calm - N/A   Clear
9:35 AM 17.8 °F - 16.2 °F 93% 30.11 in 5.0 mi Calm Calm - N/A   Clear
9:55 AM 19.6 °F - 18.1 °F 94% 30.11 in 5.0 mi Calm Calm - N/A   Clear
10:15 AM 21.6 °F - 20.3 °F 95% 30.11 in 7.0 mi Calm Calm - N/A   Clear
10:35 AM 23.5 °F - 19.8 °F 85% 30.11 in 10.0 mi Calm Calm - N/A   Clear
10:55 AM 26.6 °F - 19.4 °F 74% 30.11 in 10.0 mi Calm Calm - N/A   Clear
11:15 AM 28.9 °F - 19.6 °F 68% 30.11 in 10.0 mi Calm Calm - N/A   Clear
11:35 AM 31.5 °F - 18.7 °F 59% 30.11 in 10.0 mi Calm Calm - N/A   Clear
11:55 AM 30.7 °F - 19.0 °F 62% 30.11 in 10.0 mi Calm Calm - N/A   Clear
12:15 PM 31.5 °F - 18.7 °F 59% 30.11 in 10.0 mi Calm Calm - N/A   Clear
12:35 PM 32.9 °F - 19.0 °F 57% 30.11 in 10.0 mi Calm Calm - N/A   Clear
12:55 PM 31.8 °F - 19.6 °F 61% 30.11 in 10.0 mi Calm Calm - N/A   Clear
1:15 PM 32.7 °F - 19.9 °F 59% 30.11 in 10.0 mi Calm Calm - N/A   Clear
1:35 PM 33.4 °F - 20.1 °F 58% 30.10 in 10.0 mi Calm Calm - N/A   Clear
1:55 PM 33.8 °F - 19.8 °F 56% 30.10 in 10.0 mi Calm Calm - N/A   Clear
2:15 PM 34.7 °F - 19.8 °F 54% 30.10 in 10.0 mi Calm Calm - N/A   Clear
2:35 PM 35.2 °F - 19.9 °F 54% 30.10 in 10.0 mi Calm Calm - N/A   Clear
2:55 PM 34.3 °F 31.4 °F 20.7 °F 57% 30.10 in 10.0 mi South 3.5 mph - N/A   Clear
3:15 PM 34.3 °F 30.2 °F 21.2 °F 59% 30.10 in 10.0 mi SSE 4.6 mph - N/A   Clear
3:35 PM 34.3 °F 30.2 °F 22.6 °F 62% 30.09 in 10.0 mi SSE 4.6 mph - N/A   Clear
3:55 PM 34.0 °F 29.8 °F 21.7 °F 61% 30.09 in 10.0 mi SSE 4.6 mph - N/A   Clear
4:15 PM 33.8 °F 30.8 °F 22.5 °F 63% 30.09 in 10.0 mi SSE 3.5 mph - N/A   Clear
4:35 PM 33.1 °F - 22.8 °F 66% 30.09 in 10.0 mi Calm Calm - N/A   Clear
4:55 PM 32.2 °F 28.9 °F 23.4 °F 70% 30.08 in 10.0 mi SE 3.5 mph - N/A   Clear
5:15 PM 30.7 °F 24.9 °F 22.1 °F 70% 30.08 in 10.0 mi ESE 5.8 mph - N/A   Clear
5:35 PM 28.8 °F 23.7 °F 21.2 °F 73% 30.09 in 10.0 mi SE 4.6 mph - N/A   Clear
5:55 PM 29.1 °F 24.1 °F 21.0 °F 72% 30.10 in 10.0 mi ESE 4.6 mph - N/A   Clear
6:15 PM 28.2 °F 24.4 °F 20.7 °F 73% 30.10 in 10.0 mi East 3.5 mph - N/A   Clear
6:35 PM 25.5 °F 19.9 °F 20.1 °F 80% 30.10 in 10.0 mi ENE 4.6 mph - N/A   Clear
6:55 PM 25.5 °F 21.3 °F 20.1 °F 80% 30.11 in 10.0 mi East 3.5 mph - N/A   Clear
7:15 PM 25.7 °F 21.5 °F 20.7 °F 81% 30.11 in 10.0 mi East 3.5 mph - N/A   Clear
7:35 PM 25.5 °F - 20.3 °F 81% 30.12 in 10.0 mi Calm Calm - N/A   Clear
7:55 PM 25.5 °F - 20.3 °F 81% 30.12 in 10.0 mi Calm Calm - N/A   Clear
8:15 PM 25.0 °F 20.7 °F 19.9 °F 81% 30.12 in 10.0 mi NNE 3.5 mph - N/A   Clear
8:35 PM 23.4 °F 15.2 °F 19.0 °F 84% 30.12 in 10.0 mi NNE 6.9 mph - N/A   Clear
8:55 PM 23.0 °F 18.4 °F 19.0 °F 85% 30.12 in 10.0 mi NNE 3.5 mph - N/A   Clear
9:15 PM 25.7 °F - 20.1 °F 79% 30.12 in 10.0 mi Calm Calm - N/A   Clear
9:35 PM 22.6 °F 18.0 °F 18.3 °F 83% 30.12 in 10.0 mi NE 3.5 mph - N/A   Clear
9:55 PM 21.2 °F 14.9 °F 18.1 °F 88% 30.12 in 10.0 mi NE 4.6 mph - N/A   Clear
10:15 PM 21.9 °F 14.5 °F 18.5 °F 87% 30.13 in 10.0 mi NE 5.8 mph - N/A   Clear
10:35 PM 22.1 °F 15.9 °F 18.5 °F 86% 30.13 in 10.0 mi NE 4.6 mph - N/A   Clear
10:55 PM 21.4 °F 15.1 °F 18.3 °F 88% 30.12 in 10.0 mi NE 4.6 mph - N/A   Clear
11:15 PM 20.7 °F 14.2 °F 17.6 °F 88% 30.12 in 7.0 mi NE 4.6 mph - N/A   Clear
11:35 PM 21.0 °F - 18.3 °F 89% 30.12 in 10.0 mi Calm Calm - N/A   Clear
11:55 PM 22.3 °F 17.6 °F 18.7 °F 86% 30.13 in 10.0 mi NNE 3.5 mph - N/A   Clear